Regional Weather Roundup
Issued by NWS Upton, NY

Current Version | Previous Version | Text Only | Print | Product List | Glossary Off
Versions: 1 2 3 4 5 6 7 8 9 10 11 12 13 14 15 16 17 18 19 20 21 22 23 24 25 26 27 28 29 30 31 32 33 34 35 36 37 38 39 40 41 42 43 44 45 46 47 48 49 50
000 ASUS41 KOKX 240005 RWROKX REGIONAL WEATHER ROUNDUP NATIONAL WEATHER SERVICE NEW YORK NY 800 PM EDT SAT JUL 23 2016 NOTE: "FAIR" INDICATES FEW OR NO CLOUDS BELOW 12,000 FEET WITH NO SIGNIFICANT WEATHER AND/OR OBSTRUCTIONS TO VISIBILITY. NYZ071-072-176-178-NJZ106-104-240100- NEW YORK CITY METRO AREA CITY SKY/WX TMP DP RH WIND PRES REMARKS Central Park PTCLDY 91 60 35 VRB5 29.85R HX 90 LaGuardia APRT PTCLDY 95 59 30 NW10 29.80R HX 94 Kennedy INTL PTCLDY 94 55 26 W15 29.82R HX 92 Newark/Liberty PTCLDY 93 57 29 W10 29.81R HX 91 BRNX BOT. GARD N/A 91 54 27 CALM 29.82F Wall St Helipt MOCLDY 91 59 33 W5 29.82R HX 90 Teterboro CLEAR 92 50 23 NW13 29.80R $$ NYZ177-179-078>081-240100- LONG ISLAND NEW YORK CITY SKY/WX TMP DP RH WIND PRES REMARKS FARMINGDALE PTCLDY 92 58 31 NW7 29.82R HX 91 ISLIP PTCLDY 90 55 30 W7 29.81R SHIRLEY PTCLDY 85 67 54 S8 29.82R RIVERHEAD NOT AVBL WESTHAMPTON CLEAR 81 65 58 SW7 29.83R SOUTHAMPTON N/A 77 70 78 W7 29.77R BRIDGEHAMPTON N/A 82 64 54 CALM 29.79R EAST HAMPTON FAIR 80 67 63 SW5 29.80R MONTAUK POINT N/A 80 69 69 CALM 29.80R $$ NYZ052-065-067-240100- HUDSON VALLEY CITY SKY/WX TMP DP RH WIND PRES REMARKS WHITE PLAINS PTCLDY 88 50 27 NW13 29.83R NEWBURGH NOT AVBL MONTGOMERY PTCLDY 86 59 39 N8 29.87R POUGHKEEPSIE CLEAR 89 57 33 N8 29.84R ALBANY CLOUDY 70 64 81 N5 29.91R $$ NJZ001-105-106-008-010-013-015-019>022-104-240100- NEW JERSEY CITY SKY/WX TMP DP RH WIND PRES REMARKS NEWARK/LIBERTY PTCLDY 93 57 29 W10 29.81R HX 91 TETERBORO CLEAR 92 50 23 NW13 29.80R CALDWELL CLEAR 92 56 29 NW6 29.83R HX 90 MORRISTOWN PTCLDY 86 66 51 CALM 29.84R SOMERVILLE PTCLDY 85 63 47 CALM 29.81R SUSSEX CLEAR 88 54 31 N5 29.88R ANDOVER N/A 83 57 41 N5 29.87R TRENTON PTCLDY 85 68 56 W6 29.85R MILLVILLE CLOUDY 79 74 84 SE7 29.88R ATLANTIC CITY CLOUDY 76 70 82 CALM 29.88F WRIGHTSTOWN PTCLDY 80 69 67 W5 29.84R TOMS RIVER CLOUDY 78 71 79 S3 29.87R BELMAR CLEAR 84 67 56 SW7 29.86R $$ PAZ047>061-062-071-240100- EASTERN PENNSYLVANIA CITY SKY/WX TMP DP RH WIND PRES REMARKS PHILADELPHIA CLOUDY 85 68 56 W10 29.87R ALLENTOWN PTCLDY 90 59 35 W5 29.85R SCRANTON CLEAR 89 51 27 NW12 29.90R $$ CTZ002-004>006-009-010-012-RIZ004-006-007-MAZ004-011-015-240100- SOUTHERN NEW ENGLAND IN CT CITY SKY/WX TMP DP RH WIND PRES REMARKS BRADLEY INTL PTCLDY 87 55 33 N14G28 29.81R HARTFORD CLEAR 91 56 30 NW13G22 29.80R DANBURY CLEAR 87 55 33 N9 29.86R WTRBRY/OXFORD PTCLDY 84 54 34 N9G17 29.88R BRIDGEPORT CLEAR 91 56 30 NW7 29.80R MERIDEN CLEAR 90 56 31 NW10 29.82R NEW HAVEN CLEAR 89 56 32 NW8 29.81R CHESTER FAIR 88 55 33 NW8 29.83R GROTON CLEAR 80 67 64 W3 29.78R WILLIMANTIC NOT AVBL IN RI CITY SKY/WX TMP DP RH WIND PRES REMARKS PROVIDENCE PTCLDY 87 59 38 W8 29.77R BLOCK ISLAND CLEAR 77 65 66 SW12 29.79R WESTERLY PTCLDY 84 63 49 CALM 29.79R IN MA CITY SKY/WX TMP DP RH WIND PRES REMARKS BOSTON CLOUDY 77 56 48 NW20G36 29.81R WORCESTER CLOUDY 76 55 48 NW14G25 29.86R WESTFIELD PTCLDY 85 56 37 N16 29.84R PROVINCETOWN TSTM 72 68 87 NW12 29.75R NANTUCKET CLEAR 74 65 73 W13 29.76R $$ ANZ330-335-338-340-345-350-353-355-240100- COASTAL MARINE OBSERVATIONS STATION/POSITION TIME SKY/WX TEMP WIND PRES VSBY WAVE AIR SEA DIR/SP/G HT/PER (UTC) (F) (DEG/KT/KT) (MB) (MI) (FT/S) NY HARB ENTRANCE 2250 84 77 240/ 6/ 6 1009.2 2/ 8 20S FIRE ISLAND 2250 79 76 220/ 12/ 14 1008.8 3/ 7 GREAT SOUTH BAY 2300 84 81 270/ 6/ 16 N/A 23 SSW MONTAUK P 2250 76 71 230/ 12/ 14 1008.7 4/ 7 15 E BARNEGAT LI 2322 76 N/A 3/ 4 HUDSON CANYON 2250 79 78 1010.2 4/ 6 KINGS POINT 2300 88 74 N/A EXECUTION ROCKS 2300 87 290/ 10/ 17 N/A CENTRAL LI SOUND 2300 80 74 250/ 8/ 8 N/A 1 EASTERN LI SOUND 2300 74 68 260/ 8/ 10 N/A ROBBINS REEF 2300 93 N/A $$ >>>>>>>>>>>>>>>>>>>>>>>>>>>> KEY <<<<<<<<<<<<<<<<<<<<<<<<<<< > < > SKY/WX - SKY CONDITION/PRESENT WEATHER < > TMP - TEMPERATURE IN FAHRENHEIT < > DP - DEWPOINT IN FAHRENHEIT < > RH - RELATIVE HUMIDITY IN PERCENT < > WIND - DIRECTION AND SPEED IN MPH < > PRES - MEAN SEA LEVEL PRESSURE IN INCHES OF HG < > WCI - WIND CHILL INDEX < > VSB - VISIBILITY IN MILES < > HX - HEAT INDEX < > TC - TEMPERATURE IN CELSIUS < > VRB - VARIABLE WIND DIRECTION < > < >>>>>>>>>>>>>>>>>>>>>>>>>>>> KEY <<<<<<<<<<<<<<<<<<<<<<<<<<<

USA.gov is the U.S. government's official web portal to all federal, state and local government web resources and services.